M I D A S
Marine Information and Data Acquisition System
Tripno 1647 of the Zeeleeuw from 2009-02-26 08:03:46 to 2009-02-26 16:14:52
Back to CruiseResearch ActivitiesStationsMapUnderway DataData graphs

EquipmentUnitsComments
TimeDGPSUTC
LatitudeDGPSDM.mWGS84
LongitudeDGPSDM.mWGS84
SpeedMeteo Stationm/sRelative wind speed
DirectionMeteo StationdegRelative wind direction
TemperatureMeteo Stationdeg CelciusAir temperature
PressureMeteo StationPaAtmospheric pressure
HumidityMeteo Station%Relative humidity
Missing or incorrect values are displayed as -999
Metereological data collected by the RV Zeeleeuw from 2009-02-26 08:00:54 to 2009-02-26 16:33:56
                                                                                    Next 1000 lines
Time Latitude Longitude Speed Direction Temperature Pressure Humidity
2009-02-26 08:01:04 51°13.66 2°55.959 -999 -999 -999 -999 -999
2009-02-26 08:01:09 51°13.66 2°55.959 -999 -999 -999 -999 -999
2009-02-26 08:01:14 51°13.661 2°55.959 -999 -999 -999 -999 -999
2009-02-26 08:01:19 51°13.661 2°55.959 -999 -999 -999 -999 -999
2009-02-26 08:01:24 51°13.661 2°55.959 -999 -999 -999 -999 -999
2009-02-26 08:01:29 51°13.661 2°55.959 -999 -999 -999 -999 -999
2009-02-26 08:01:34 51°13.661 2°55.959 -999 -999 -999 -999 -999
2009-02-26 08:01:39 51°13.661 2°55.96 -999 -999 -999 -999 -999
2009-02-26 08:01:44 51°13.661 2°55.96 -999 -999 -999 -999 -999
2009-02-26 08:01:49 51°13.661 2°55.96 -999 -999 -999 -999 -999
2009-02-26 08:01:54 51°13.661 2°55.96 -999 -999 -999 -999 -999
2009-02-26 08:01:59 51°13.661 2°55.96 -999 -999 -999 -999 -999
2009-02-26 08:02:04 51°13.66 2°55.96 -999 -999 -999 -999 -999
2009-02-26 08:02:09 51°13.66 2°55.96 -999 -999 -999 -999 -999
2009-02-26 08:02:14 51°13.66 2°55.96 -999 -999 -999 -999 -999
2009-02-26 08:02:19 51°13.66 2°55.96 -999 -999 -999 -999 -999
2009-02-26 08:02:24 51°13.66 2°55.96 -999 -999 -999 -999 -999
2009-02-26 08:02:29 51°13.66 2°55.96 -999 -999 -999 -999 -999
2009-02-26 08:02:34 51°13.66 2°55.96 -999 -999 -999 -999 -999
2009-02-26 08:02:39 51°13.661 2°55.96 -999 -999 -999 -999 -999
2009-02-26 08:02:44 51°13.661 2°55.96 -999 -999 -999 -999 -999
2009-02-26 08:02:49 51°13.66 2°55.959 -999 -999 -999 -999 -999
2009-02-26 08:02:54 51°13.66 2°55.959 -999 -999 -999 -999 -999
2009-02-26 08:02:59 51°13.66 2°55.959 -999 -999 -999 -999 -999
2009-02-26 08:03:04 51°13.66 2°55.959 -999 -999 -999 -999 -999
2009-02-26 08:03:09 51°13.66 2°55.959 -999 -999 -999 -999 -999
2009-02-26 08:03:14 51°13.66 2°55.959 -999 -999 -999 -999 -999
2009-02-26 08:03:19 51°13.66 2°55.959 -999 -999 -999 -999 -999
2009-02-26 08:03:24 51°13.66 2°55.959 -999 -999 -999 -999 -999
2009-02-26 08:03:29 51°13.66 2°55.958 -999 -999 -999 -999 -999
2009-02-26 08:03:34 51°13.66 2°55.956 -999 -999 -999 -999 -999
2009-02-26 08:03:39 51°13.661 2°55.954 -999 -999 -999 -999 -999
2009-02-26 08:03:44 51°13.662 2°55.951 -999 -999 -999 -999 -999
2009-02-26 08:03:49 51°13.663 2°55.947 -999 -999 -999 -999 -999
2009-02-26 08:03:54 51°13.665 2°55.942 -999 -999 -999 -999 -999
2009-02-26 08:03:59 51°13.666 2°55.936 -999 -999 -999 -999 -999
2009-02-26 08:04:04 51°13.668 2°55.931 -999 -999 -999 -999 -999
2009-02-26 08:04:09 51°13.671 2°55.925 -999 -999 -999 -999 -999
2009-02-26 08:04:14 51°13.672 2°55.919 -999 -999 -999 -999 -999
2009-02-26 08:04:19 51°13.674 2°55.913 -999 -999 -999 -999 -999
2009-02-26 08:04:24 51°13.676 2°55.906 -999 -999 -999 -999 -999
2009-02-26 08:04:29 51°13.678 2°55.899 -999 -999 -999 -999 -999
2009-02-26 08:04:34 51°13.68 2°55.892 -999 -999 -999 -999 -999
2009-02-26 08:04:39 51°13.682 2°55.884 -999 -999 -999 -999 -999
2009-02-26 08:04:44 51°13.684 2°55.876 -999 -999 -999 -999 -999
2009-02-26 08:04:49 51°13.686 2°55.868 -999 -999 -999 -999 -999
2009-02-26 08:04:54 51°13.686 2°55.86 -999 -999 -999 -999 -999
2009-02-26 08:04:59 51°13.687 2°55.851 -999 -999 -999 -999 -999
2009-02-26 08:05:04 51°13.689 2°55.843 -999 -999 -999 -999 -999
2009-02-26 08:05:09 51°13.69 2°55.834 -999 -999 -999 -999 -999
2009-02-26 08:05:14 51°13.691 2°55.826 -999 -999 -999 -999 -999
2009-02-26 08:05:19 51°13.691 2°55.818 -999 -999 -999 -999 -999
2009-02-26 08:05:24 51°13.692 2°55.811 -999 -999 -999 -999 -999
2009-02-26 08:05:29 51°13.692 2°55.803 -999 -999 -999 -999 -999
2009-02-26 08:05:34 51°13.693 2°55.795 -999 -999 -999 -999 -999
2009-02-26 08:05:39 51°13.694 2°55.788 -999 -999 -999 -999 -999
2009-02-26 08:05:44 51°13.694 2°55.782 -999 -999 -999 -999 -999
2009-02-26 08:05:49 51°13.694 2°55.775 -999 -999 -999 -999 -999
2009-02-26 08:05:54 51°13.694 2°55.769 -999 -999 -999 -999 -999
2009-02-26 08:05:59 51°13.694 2°55.763 -999 -999 -999 -999 -999
2009-02-26 08:06:04 51°13.693 2°55.758 -999 -999 -999 -999 -999
2009-02-26 08:06:09 51°13.694 2°55.754 -999 -999 -999 -999 -999
2009-02-26 08:06:14 51°13.694 2°55.751 -999 -999 -999 -999 -999
2009-02-26 08:06:19 51°13.694 2°55.749 -999 -999 -999 -999 -999
2009-02-26 08:06:24 51°13.695 2°55.748 -999 -999 -999 -999 -999
2009-02-26 08:06:29 51°13.695 2°55.748 -999 -999 -999 -999 -999
2009-02-26 08:06:34 51°13.696 2°55.748 -999 -999 -999 -999 -999
2009-02-26 08:06:39 51°13.697 2°55.749 -999 -999 -999 -999 -999
2009-02-26 08:06:44 51°13.698 2°55.75 -999 -999 -999 -999 -999
2009-02-26 08:06:49 51°13.699 2°55.752 -999 -999 -999 -999 -999
2009-02-26 08:06:54 51°13.701 2°55.753 -999 -999 -999 -999 -999
2009-02-26 08:06:59 51°13.702 2°55.754 -999 -999 -999 -999 -999
2009-02-26 08:07:04 51°13.704 2°55.756 -999 -999 -999 -999 -999
2009-02-26 08:07:09 51°13.706 2°55.757 -999 -999 -999 -999 -999
2009-02-26 08:07:14 51°13.707 2°55.758 -999 -999 -999 -999 -999
2009-02-26 08:07:19 51°13.709 2°55.758 -999 -999 -999 -999 -999
2009-02-26 08:07:24 51°13.71 2°55.758 -999 -999 -999 -999 -999
2009-02-26 08:07:28 51°13.71 2°55.758 -999 -999 -999 -999 -999
2009-02-26 08:07:34 51°13.71 2°55.759 -999 -999 -999 -999 -999
2009-02-26 08:07:39 51°13.711 2°55.758 -999 -999 -999 -999 -999
2009-02-26 08:07:44 51°13.71 2°55.758 -999 -999 -999 -999 -999
2009-02-26 08:07:48 51°13.71 2°55.758 -999 -999 -999 -999 -999
2009-02-26 08:07:54 51°13.708 2°55.758 -999 -999 -999 -999 -999
2009-02-26 08:07:59 51°13.707 2°55.757 -999 -999 -999 -999 -999
2009-02-26 08:08:04 51°13.705 2°55.757 -999 -999 -999 -999 -999
2009-02-26 08:08:09 51°13.704 2°55.757 -999 -999 -999 -999 -999
2009-02-26 08:08:14 51°13.702 2°55.756 -999 -999 -999 -999 -999
2009-02-26 08:08:19 51°13.701 2°55.755 -999 -999 -999 -999 -999
2009-02-26 08:08:24 51°13.7 2°55.755 -999 -999 -999 -999 -999
2009-02-26 08:08:29 51°13.7 2°55.754 -999 -999 -999 -999 -999
2009-02-26 08:08:34 51°13.7 2°55.754 -999 -999 -999 -999 -999
2009-02-26 08:08:39 51°13.701 2°55.753 -999 -999 -999 -999 -999
2009-02-26 08:08:44 51°13.702 2°55.753 -999 -999 -999 -999 -999
2009-02-26 08:08:49 51°13.703 2°55.752 -999 -999 -999 -999 -999
2009-02-26 08:08:54 51°13.705 2°55.751 -999 -999 -999 -999 -999
2009-02-26 08:08:59 51°13.707 2°55.749 -999 -999 -999 -999 -999
2009-02-26 08:09:04 51°13.71 2°55.747 -999 -999 -999 -999 -999
2009-02-26 08:09:09 51°13.714 2°55.743 -999 -999 -999 -999 -999
2009-02-26 08:09:14 51°13.719 2°55.739 -999 -999 -999 -999 -999
2009-02-26 08:09:19 51°13.724 2°55.733 -999 -999 -999 -999 -999
2009-02-26 08:09:24 51°13.73 2°55.727 -999 -999 -999 -999 -999
2009-02-26 08:09:29 51°13.737 2°55.721 -999 -999 -999 -999 -999
2009-02-26 08:09:34 51°13.744 2°55.713 -999 -999 -999 -999 -999
2009-02-26 08:09:39 51°13.752 2°55.707 -999 -999 -999 -999 -999
2009-02-26 08:09:44 51°13.76 2°55.699 -999 -999 -999 -999 -999
2009-02-26 08:09:49 51°13.768 2°55.691 -999 -999 -999 -999 -999
2009-02-26 08:09:54 51°13.777 2°55.683 -999 -999 -999 -999 -999
2009-02-26 08:09:59 51°13.786 2°55.675 -999 -999 -999 -999 -999
2009-02-26 08:10:04 51°13.795 2°55.667 -999 -999 -999 -999 -999
2009-02-26 08:10:09 51°13.805 2°55.659 -999 -999 -999 -999 -999
2009-02-26 08:10:14 51°13.815 2°55.65 -999 -999 -999 -999 -999
2009-02-26 08:10:19 51°13.824 2°55.642 -999 -999 -999 -999 -999
2009-02-26 08:10:24 51°13.834 2°55.633 -999 -999 -999 -999 -999
2009-02-26 08:10:29 51°13.844 2°55.625 -999 -999 -999 -999 -999
2009-02-26 08:10:34 51°13.855 2°55.617 -999 -999 -999 -999 -999
2009-02-26 08:10:39 51°13.865 2°55.609 -999 -999 -999 -999 -999
2009-02-26 08:10:44 51°13.876 2°55.601 -999 -999 -999 -999 -999
2009-02-26 08:10:49 51°13.886 2°55.593 -999 -999 -999 -999 -999
2009-02-26 08:10:54 51°13.897 2°55.584 -999 -999 -999 -999 -999
2009-02-26 08:10:59 51°13.908 2°55.577 -999 -999 -999 -999 -999
2009-02-26 08:11:04 51°13.918 2°55.568 -999 -999 -999 -999 -999
2009-02-26 08:11:09 51°13.929 2°55.56 -999 -999 -999 -999 -999
2009-02-26 08:11:14 51°13.94 2°55.551 -999 -999 -999 -999 -999
2009-02-26 08:11:19 51°13.951 2°55.543 -999 -999 -999 -999 -999
2009-02-26 08:11:24 51°13.962 2°55.535 -999 -999 -999 -999 -999
2009-02-26 08:11:29 51°13.973 2°55.527 -999 -999 -999 -999 -999
2009-02-26 08:11:34 51°13.984 2°55.519 -999 -999 -999 -999 -999
2009-02-26 08:11:39 51°13.995 2°55.511 -999 -999 -999 -999 -999
2009-02-26 08:11:44 51°14.006 2°55.503 -999 -999 -999 -999 -999
2009-02-26 08:11:49 51°14.017 2°55.494 -999 -999 -999 -999 -999
2009-02-26 08:11:54 51°14.028 2°55.486 -999 -999 -999 -999 -999
2009-02-26 08:11:59 51°14.039 2°55.478 -999 -999 -999 -999 -999
2009-02-26 08:12:04 51°14.05 2°55.47 -999 -999 -999 -999 -999
2009-02-26 08:12:09 51°14.061 2°55.462 -999 -999 -999 -999 -999
2009-02-26 08:12:14 51°14.073 2°55.454 -999 -999 -999 -999 -999
2009-02-26 08:12:19 51°14.084 2°55.446 -999 -999 -999 -999 -999
2009-02-26 08:12:24 51°14.094 2°55.437 -999 -999 -999 -999 -999
2009-02-26 08:12:29 51°14.105 2°55.429 -999 -999 -999 -999 -999
2009-02-26 08:12:34 51°14.116 2°55.421 -999 -999 -999 -999 -999
2009-02-26 08:12:39 51°14.127 2°55.412 -999 -999 -999 -999 -999
2009-02-26 08:12:44 51°14.137 2°55.403 -999 -999 -999 -999 -999
2009-02-26 08:12:49 51°14.148 2°55.394 -999 -999 -999 -999 -999
2009-02-26 08:12:54 51°14.158 2°55.384 -999 -999 -999 -999 -999
2009-02-26 08:12:59 51°14.168 2°55.374 -999 -999 -999 -999 -999
2009-02-26 08:13:04 51°14.179 2°55.364 -999 -999 -999 -999 -999
2009-02-26 08:13:09 51°14.189 2°55.354 -999 -999 -999 -999 -999
2009-02-26 08:13:14 51°14.199 2°55.343 -999 -999 -999 -999 -999
2009-02-26 08:13:19 51°14.209 2°55.332 -999 -999 -999 -999 -999
2009-02-26 08:13:24 51°14.218 2°55.32 -999 -999 -999 -999 -999
2009-02-26 08:13:29 51°14.228 2°55.308 -999 -999 -999 -999 -999
2009-02-26 08:13:34 51°14.237 2°55.296 -999 -999 -999 -999 -999
2009-02-26 08:13:39 51°14.245 2°55.283 -999 -999 -999 -999 -999
2009-02-26 08:13:44 51°14.254 2°55.27 -999 -999 -999 -999 -999
2009-02-26 08:13:49 51°14.262 2°55.256 -999 -999 -999 -999 -999
2009-02-26 08:13:54 51°14.271 2°55.242 -999 -999 -999 -999 -999
2009-02-26 08:13:59 51°14.279 2°55.228 -999 -999 -999 -999 -999
2009-02-26 08:14:04 51°14.287 2°55.214 -999 -999 -999 -999 -999
2009-02-26 08:14:09 51°14.295 2°55.199 -999 -999 -999 -999 -999
2009-02-26 08:14:14 51°14.303 2°55.184 -999 -999 -999 -999 -999
2009-02-26 08:14:19 51°14.311 2°55.169 -999 -999 -999 -999 -999
2009-02-26 08:14:24 51°14.319 2°55.154 -999 -999 -999 -999 -999
2009-02-26 08:14:29 51°14.327 2°55.139 -999 -999 -999 -999 -999
2009-02-26 08:14:34 51°14.334 2°55.124 -999 -999 -999 -999 -999
2009-02-26 08:14:39 51°14.342 2°55.109 -999 -999 -999 -999 -999
2009-02-26 08:14:44 51°14.35 2°55.094 -999 -999 -999 -999 -999
2009-02-26 08:14:49 51°14.358 2°55.079 -999 -999 -999 -999 -999
2009-02-26 08:14:54 51°14.366 2°55.064 -999 -999 -999 -999 -999
2009-02-26 08:14:59 51°14.374 2°55.048 -999 -999 -999 -999 -999
2009-02-26 08:15:04 51°14.382 2°55.033 -999 -999 -999 -999 -999
2009-02-26 08:15:09 51°14.391 2°55.018 -999 -999 -999 -999 -999
2009-02-26 08:15:14 51°14.4 2°55.004 -999 -999 -999 -999 -999
2009-02-26 08:15:19 51°14.409 2°54.989 -999 -999 -999 -999 -999
2009-02-26 08:15:24 51°14.419 2°54.975 -999 -999 -999 -999 -999
2009-02-26 08:15:29 51°14.43 2°54.962 -999 -999 -999 -999 -999
2009-02-26 08:15:34 51°14.44 2°54.949 -999 -999 -999 -999 -999
2009-02-26 08:15:39 51°14.451 2°54.936 -999 -999 -999 -999 -999
2009-02-26 08:15:44 51°14.462 2°54.924 -999 -999 -999 -999 -999
2009-02-26 08:15:49 51°14.473 2°54.911 -999 -999 -999 -999 -999
2009-02-26 08:15:54 51°14.484 2°54.897 -999 -999 -999 -999 -999
2009-02-26 08:15:59 51°14.495 2°54.883 -999 -999 -999 -999 -999
2009-02-26 08:16:03 51°14.504 2°54.872 -999 -999 -999 -999 -999
2009-02-26 08:16:09 51°14.517 2°54.855 -999 -999 -999 -999 -999
2009-02-26 08:16:14 51°14.528 2°54.841 -999 -999 -999 -999 -999
2009-02-26 08:16:19 51°14.54 2°54.826 -999 -999 -999 -999 -999
2009-02-26 08:16:24 51°14.551 2°54.812 -999 -999 -999 -999 -999
2009-02-26 08:16:29 51°14.563 2°54.798 -999 -999 -999 -999 -999
2009-02-26 08:16:34 51°14.574 2°54.783 -999 -999 -999 -999 -999
2009-02-26 08:16:39 51°14.586 2°54.769 -999 -999 -999 -999 -999
2009-02-26 08:16:44 51°14.598 2°54.754 -999 -999 -999 -999 -999
2009-02-26 08:16:49 51°14.61 2°54.739 -999 -999 -999 -999 -999
2009-02-26 08:16:54 51°14.622 2°54.723 -999 -999 -999 -999 -999
2009-02-26 08:16:59 51°14.634 2°54.707 -999 -999 -999 -999 -999
2009-02-26 08:17:04 51°14.646 2°54.691 -999 -999 -999 -999 -999
2009-02-26 08:17:09 51°14.658 2°54.675 -999 -999 -999 -999 -999
2009-02-26 08:17:14 51°14.671 2°54.659 -999 -999 -999 -999 -999
2009-02-26 08:17:19 51°14.684 2°54.643 -999 -999 -999 -999 -999
2009-02-26 08:17:24 51°14.696 2°54.627 -999 -999 -999 -999 -999
2009-02-26 08:17:29 51°14.709 2°54.611 -999 -999 -999 -999 -999
2009-02-26 08:17:34 51°14.722 2°54.595 -999 -999 -999 -999 -999
2009-02-26 08:17:39 51°14.735 2°54.58 -999 -999 -999 -999 -999
2009-02-26 08:17:44 51°14.748 2°54.564 -999 -999 -999 -999 -999
2009-02-26 08:17:49 51°14.761 2°54.549 -999 -999 -999 -999 -999
2009-02-26 08:17:54 51°14.775 2°54.533 -999 -999 -999 -999 -999
2009-02-26 08:17:59 51°14.788 2°54.518 -999 -999 -999 -999 -999
2009-02-26 08:18:04 51°14.801 2°54.503 -999 -999 -999 -999 -999
2009-02-26 08:18:09 51°14.814 2°54.487 -999 -999 -999 -999 -999
2009-02-26 08:18:14 51°14.827 2°54.472 -999 -999 -999 -999 -999
2009-02-26 08:18:19 51°14.84 2°54.456 -999 -999 -999 -999 -999
2009-02-26 08:18:24 51°14.853 2°54.441 -999 -999 -999 -999 -999
2009-02-26 08:18:29 51°14.866 2°54.426 -999 -999 -999 -999 -999
2009-02-26 08:18:34 51°14.879 2°54.41 -999 -999 -999 -999 -999
2009-02-26 08:18:39 51°14.892 2°54.395 -999 -999 -999 -999 -999
2009-02-26 08:18:43 51°14.903 2°54.383 -999 -999 -999 -999 -999
2009-02-26 08:18:49 51°14.918 2°54.365 -999 -999 -999 -999 -999
2009-02-26 08:18:54 51°14.931 2°54.349 -999 -999 -999 -999 -999
2009-02-26 08:18:59 51°14.943 2°54.333 -999 -999 -999 -999 -999
2009-02-26 08:19:03 51°14.953 2°54.321 -999 -999 -999 -999 -999
2009-02-26 08:19:08 51°14.965 2°54.305 -999 -999 -999 -999 -999
2009-02-26 08:19:14 51°14.981 2°54.287 -999 -999 -999 -999 -999
2009-02-26 08:19:19 51°14.993 2°54.272 -999 -999 -999 -999 -999
2009-02-26 08:19:23 51°15.003 2°54.261 -999 -999 -999 -999 -999
2009-02-26 08:19:28 51°15.016 2°54.246 -999 -999 -999 -999 -999
2009-02-26 08:19:33 51°15.029 2°54.231 -999 -999 -999 -999 -999
2009-02-26 08:19:39 51°15.044 2°54.214 -999 -999 -999 -999 -999
2009-02-26 08:19:43 51°15.055 2°54.202 -999 -999 -999 -999 -999
2009-02-26 08:19:48 51°15.068 2°54.188 -999 -999 -999 -999 -999
2009-02-26 08:19:54 51°15.083 2°54.171 -999 -999 -999 -999 -999
2009-02-26 08:19:59 51°15.096 2°54.157 -999 -999 -999 -999 -999
2009-02-26 08:20:04 51°15.109 2°54.142 -999 -999 -999 -999 -999
2009-02-26 08:20:08 51°15.12 2°54.131 -999 -999 -999 -999 -999
2009-02-26 08:20:14 51°15.136 2°54.114 -999 -999 -999 -999 -999
2009-02-26 08:20:19 51°15.149 2°54.099 -999 -999 -999 -999 -999
2009-02-26 08:20:24 51°15.162 2°54.085 -999 -999 -999 -999 -999
2009-02-26 08:20:29 51°15.176 2°54.071 -999 -999 -999 -999 -999
2009-02-26 08:20:34 51°15.189 2°54.057 -999 -999 -999 -999 -999
2009-02-26 08:20:39 51°15.202 2°54.043 -999 -999 -999 -999 -999
2009-02-26 08:20:43 51°15.213 2°54.031 -999 -999 -999 -999 -999
2009-02-26 08:20:48 51°15.226 2°54.017 -999 -999 -999 -999 -999
2009-02-26 08:20:54 51°15.242 2°53.999 -999 -999 -999 -999 -999
2009-02-26 08:20:59 51°15.255 2°53.985 -999 -999 -999 -999 -999
2009-02-26 08:21:03 51°15.266 2°53.973 -999 -999 -999 -999 -999
2009-02-26 08:21:08 51°15.279 2°53.959 -999 -999 -999 -999 -999
2009-02-26 08:21:14 51°15.295 2°53.941 -999 -999 -999 -999 -999
2009-02-26 08:21:19 51°15.309 2°53.927 -999 -999 -999 -999 -999
2009-02-26 08:21:23 51°15.319 2°53.916 -999 -999 -999 -999 -999
2009-02-26 08:21:28 51°15.333 2°53.901 -999 -999 -999 -999 -999
2009-02-26 08:21:34 51°15.349 2°53.884 -999 -999 -999 -999 -999
2009-02-26 08:21:39 51°15.363 2°53.87 -999 -999 -999 -999 -999
2009-02-26 08:21:43 51°15.373 2°53.859 -999 -999 -999 -999 -999
2009-02-26 08:21:48 51°15.387 2°53.846 -999 -999 -999 -999 -999
2009-02-26 08:21:54 51°15.403 2°53.829 -999 -999 -999 -999 -999
2009-02-26 08:21:59 51°15.417 2°53.816 -999 -999 -999 -999 -999
2009-02-26 08:22:03 51°15.428 2°53.805 -999 -999 -999 -999 -999
2009-02-26 08:22:08 51°15.441 2°53.791 -999 -999 -999 -999 -999
2009-02-26 08:22:14 51°15.458 2°53.775 -999 -999 -999 -999 -999
2009-02-26 08:22:19 51°15.471 2°53.761 -999 -999 -999 -999 -999
2009-02-26 08:22:23 51°15.482 2°53.75 -999 -999 -999 -999 -999
2009-02-26 08:22:28 51°15.496 2°53.737 -999 -999 -999 -999 -999
2009-02-26 08:22:34 51°15.513 2°53.721 -999 -999 -999 -999 -999
2009-02-26 08:22:39 51°15.527 2°53.708 -999 -999 -999 -999 -999
2009-02-26 08:22:44 51°15.541 2°53.695 -999 -999 -999 -999 -999
2009-02-26 08:22:48 51°15.552 2°53.685 -999 -999 -999 -999 -999
2009-02-26 08:22:54 51°15.569 2°53.669 -999 -999 -999 -999 -999
2009-02-26 08:22:59 51°15.583 2°53.657 -999 -999 -999 -999 -999
2009-02-26 08:23:03 51°15.595 2°53.647 -999 -999 -999 -999 -999
2009-02-26 08:23:08 51°15.609 2°53.634 -999 -999 -999 -999 -999
2009-02-26 08:23:14 51°15.625 2°53.618 -999 -999 -999 -999 -999
2009-02-26 08:23:19 51°15.64 2°53.605 -999 -999 -999 -999 -999
2009-02-26 08:23:23 51°15.651 2°53.595 -999 -999 -999 -999 -999
2009-02-26 08:23:28 51°15.665 2°53.582 -999 -999 -999 -999 -999
2009-02-26 08:23:34 51°15.682 2°53.567 -999 -999 -999 -999 -999
2009-02-26 08:23:39 51°15.696 2°53.554 -999 -999 -999 -999 -999
2009-02-26 08:23:43 51°15.708 2°53.543 -999 -999 -999 -999 -999
2009-02-26 08:23:48 51°15.721 2°53.529 -999 -999 -999 -999 -999
2009-02-26 08:23:54 51°15.738 2°53.514 -999 -999 -999 -999 -999
2009-02-26 08:23:59 51°15.753 2°53.501 -999 -999 -999 -999 -999
2009-02-26 08:24:03 51°15.764 2°53.49 -999 -999 -999 -999 -999
2009-02-26 08:24:08 51°15.777 2°53.477 -999 -999 -999 -999 -999
2009-02-26 08:24:14 51°15.794 2°53.46 -999 -999 -999 -999 -999
2009-02-26 08:24:19 51°15.808 2°53.446 -999 -999 -999 -999 -999
2009-02-26 08:24:23 51°15.819 2°53.435 -999 -999 -999 -999 -999
2009-02-26 08:24:28 51°15.833 2°53.42 -999 -999 -999 -999 -999
2009-02-26 08:24:33 51°15.846 2°53.406 -999 -999 -999 -999 -999
2009-02-26 08:24:39 51°15.863 2°53.388 -999 -999 -999 -999 -999
2009-02-26 08:24:44 51°15.877 2°53.375 -999 -999 -999 -999 -999
2009-02-26 08:24:48 51°15.887 2°53.363 -999 -999 -999 -999 -999
2009-02-26 08:24:54 51°15.904 2°53.346 -999 -999 -999 -999 -999
2009-02-26 08:24:59 51°15.918 2°53.332 -999 -999 -999 -999 -999
2009-02-26 08:25:03 51°15.929 2°53.321 -999 -999 -999 -999 -999
2009-02-26 08:25:08 51°15.942 2°53.307 -999 -999 -999 -999 -999
2009-02-26 08:25:14 51°15.959 2°53.291 -999 -999 -999 -999 -999
2009-02-26 08:25:19 51°15.973 2°53.277 -999 -999 -999 -999 -999
2009-02-26 08:25:23 51°15.984 2°53.266 -999 -999 -999 -999 -999
2009-02-26 08:25:29 51°16.001 2°53.25 -999 -999 -999 -999 -999
2009-02-26 08:25:34 51°16.014 2°53.236 -999 -999 -999 -999 -999
2009-02-26 08:25:39 51°16.028 2°53.223 -999 -999 -999 -999 -999
2009-02-26 08:25:43 51°16.039 2°53.213 -999 -999 -999 -999 -999
2009-02-26 08:25:49 51°16.056 2°53.197 -999 -999 -999 -999 -999
2009-02-26 08:25:54 51°16.07 2°53.184 -999 -999 -999 -999 -999
2009-02-26 08:25:59 51°16.084 2°53.171 -999 -999 -999 -999 -999
2009-02-26 08:26:03 51°16.095 2°53.161 -999 -999 -999 -999 -999
2009-02-26 08:26:08 51°16.109 2°53.147 -999 -999 -999 -999 -999
2009-02-26 08:26:14 51°16.125 2°53.131 -999 -999 -999 -999 -999
2009-02-26 08:26:19 51°16.139 2°53.118 -999 -999 -999 -999 -999
2009-02-26 08:26:23 51°16.15 2°53.107 -999 -999 -999 -999 -999
2009-02-26 08:26:28 51°16.164 2°53.094 -999 -999 -999 -999 -999
2009-02-26 08:26:33 51°16.178 2°53.081 -999 -999 -999 -999 -999
2009-02-26 08:26:39 51°16.195 2°53.065 -999 -999 -999 -999 -999
2009-02-26 08:26:43 51°16.206 2°53.054 -999 -999 -999 -999 -999
2009-02-26 08:26:48 51°16.22 2°53.041 -999 -999 -999 -999 -999
2009-02-26 08:26:54 51°16.236 2°53.025 -999 -999 -999 -999 -999
2009-02-26 08:26:59 51°16.25 2°53.011 -999 -999 -999 -999 -999
2009-02-26 08:27:04 51°16.263 2°52.997 -999 -999 -999 -999 -999
2009-02-26 08:27:08 51°16.274 2°52.986 -999 -999 -999 -999 -999
2009-02-26 08:27:13 51°16.288 2°52.973 -999 -999 -999 -999 -999
2009-02-26 08:27:19 51°16.305 2°52.957 -999 -999 -999 -999 -999
2009-02-26 08:27:23 51°16.316 2°52.947 -999 -999 -999 -999 -999
2009-02-26 08:27:28 51°16.33 2°52.934 -999 -999 -999 -999 -999
2009-02-26 08:27:33 51°16.344 2°52.923 -999 -999 -999 -999 -999
2009-02-26 08:27:39 51°16.362 2°52.91 -999 -999 -999 -999 -999
2009-02-26 08:27:43 51°16.374 2°52.902 -999 -999 -999 -999 -999
2009-02-26 08:27:48 51°16.388 2°52.892 -999 -999 -999 -999 -999
2009-02-26 08:27:54 51°16.406 2°52.881 -999 -999 -999 -999 -999
2009-02-26 08:27:59 51°16.421 2°52.872 -999 -999 -999 -999 -999
2009-02-26 08:28:03 51°16.433 2°52.865 -999 -999 -999 -999 -999
2009-02-26 08:28:08 51°16.448 2°52.857 -999 -999 -999 -999 -999
2009-02-26 08:28:14 51°16.466 2°52.846 -999 -999 -999 -999 -999
2009-02-26 08:28:19 51°16.481 2°52.838 -999 -999 -999 -999 -999
2009-02-26 08:28:23 51°16.493 2°52.831 -999 -999 -999 -999 -999
2009-02-26 08:28:28 51°16.508 2°52.823 -999 -999 -999 -999 -999
2009-02-26 08:28:34 51°16.526 2°52.813 -999 -999 -999 -999 -999
2009-02-26 08:28:39 51°16.541 2°52.805 -999 -999 -999 -999 -999
2009-02-26 08:28:43 51°16.553 2°52.798 -999 -999 -999 -999 -999
2009-02-26 08:28:48 51°16.568 2°52.79 -999 -999 -999 -999 -999
2009-02-26 08:28:53 51°16.583 2°52.782 -999 -999 -999 -999 -999
2009-02-26 08:28:59 51°16.601 2°52.772 -999 -999 -999 -999 -999
2009-02-26 08:29:03 51°16.613 2°52.764 -999 -999 -999 -999 -999
2009-02-26 08:29:08 51°16.628 2°52.757 -999 -999 -999 -999 -999
2009-02-26 08:29:14 51°16.646 2°52.746 -999 -999 -999 -999 -999
2009-02-26 08:29:19 51°16.661 2°52.74 -999 -999 -999 -999 -999
2009-02-26 08:29:23 51°16.673 2°52.734 -999 -999 -999 -999 -999
2009-02-26 08:29:28 51°16.688 2°52.728 -999 -999 -999 -999 -999
2009-02-26 08:29:33 51°16.703 2°52.72 -999 -999 -999 -999 -999
2009-02-26 08:29:39 51°16.72 2°52.713 -999 -999 -999 -999 -999
2009-02-26 08:29:44 51°16.735 2°52.705 -999 -999 -999 -999 -999
2009-02-26 08:29:48 51°16.747 2°52.7 -999 -999 -999 -999 -999
2009-02-26 08:29:54 51°16.765 2°52.692 -999 -999 -999 -999 -999
2009-02-26 08:29:59 51°16.779 2°52.686 -999 -999 -999 -999 -999
2009-02-26 08:30:03 51°16.791 2°52.682 -999 -999 -999 -999 -999
2009-02-26 08:30:09 51°16.809 2°52.674 -999 -999 -999 -999 -999
2009-02-26 08:30:14 51°16.824 2°52.668 -999 -999 -999 -999 -999
2009-02-26 08:30:19 51°16.838 2°52.661 -999 -999 -999 -999 -999
2009-02-26 08:30:23 51°16.85 2°52.656 -999 -999 -999 -999 -999
2009-02-26 08:30:28 51°16.865 2°52.649 -999 -999 -999 -999 -999
2009-02-26 08:30:34 51°16.882 2°52.64 -999 -999 -999 -999 -999
2009-02-26 08:30:39 51°16.896 2°52.634 -999 -999 -999 -999 -999
2009-02-26 08:30:43 51°16.908 2°52.628 -999 -999 -999 -999 -999
2009-02-26 08:30:48 51°16.923 2°52.621 -999 -999 -999 -999 -999
2009-02-26 08:30:54 51°16.94 2°52.613 -999 -999 -999 -999 -999
2009-02-26 08:30:59 51°16.955 2°52.605 -999 -999 -999 -999 -999
2009-02-26 08:31:03 51°16.966 2°52.6 -999 -999 -999 -999 -999
2009-02-26 08:31:08 51°16.981 2°52.593 -999 -999 -999 -999 -999
2009-02-26 08:31:14 51°16.998 2°52.585 -999 -999 -999 -999 -999
2009-02-26 08:31:19 51°17.013 2°52.578 -999 -999 -999 -999 -999
2009-02-26 08:31:23 51°17.024 2°52.573 -999 -999 -999 -999 -999
2009-02-26 08:31:29 51°17.042 2°52.564 -999 -999 -999 -999 -999
2009-02-26 08:31:34 51°17.056 2°52.557 -999 -999 -999 -999 -999
2009-02-26 08:31:39 51°17.07 2°52.55 -999 -999 -999 -999 -999
2009-02-26 08:31:44 51°17.085 2°52.544 -999 -999 -999 -999 -999
2009-02-26 08:31:49 51°17.1 2°52.538 -999 -999 -999 -999 -999
2009-02-26 08:31:54 51°17.114 2°52.531 -999 -999 -999 -999 -999
2009-02-26 08:31:59 51°17.129 2°52.528 -999 -999 -999 -999 -999
2009-02-26 08:32:04 51°17.144 2°52.522 -999 -999 -999 -999 -999
2009-02-26 08:32:09 51°17.159 2°52.52 -999 -999 -999 -999 -999
2009-02-26 08:32:14 51°17.173 2°52.515 -999 -999 -999 -999 -999
2009-02-26 08:32:19 51°17.188 2°52.512 -999 -999 -999 -999 -999
2009-02-26 08:32:24 51°17.203 2°52.509 -999 -999 -999 -999 -999
2009-02-26 08:32:29 51°17.218 2°52.505 -999 -999 -999 -999 -999
2009-02-26 08:32:34 51°17.232 2°52.502 -999 -999 -999 -999 -999
2009-02-26 08:32:39 51°17.247 2°52.499 -999 -999 -999 -999 -999
2009-02-26 08:32:44 51°17.262 2°52.496 -999 -999 -999 -999 -999
2009-02-26 08:32:49 51°17.277 2°52.493 -999 -999 -999 -999 -999
2009-02-26 08:32:54 51°17.292 2°52.491 -999 -999 -999 -999 -999
2009-02-26 08:32:59 51°17.306 2°52.491 -999 -999 -999 -999 -999
2009-02-26 08:33:04 51°17.32 2°52.495 -999 -999 -999 -999 -999
2009-02-26 08:33:09 51°17.334 2°52.5 -999 -999 -999 -999 -999
2009-02-26 08:33:14 51°17.348 2°52.509 -999 -999 -999 -999 -999
2009-02-26 08:33:19 51°17.361 2°52.515 -999 -999 -999 -999 -999
2009-02-26 08:33:24 51°17.374 2°52.525 -999 -999 -999 -999 -999
2009-02-26 08:33:29 51°17.388 2°52.533 -999 -999 -999 -999 -999
2009-02-26 08:33:34 51°17.401 2°52.544 -999 -999 -999 -999 -999
2009-02-26 08:33:39 51°17.413 2°52.555 -999 -999 -999 -999 -999
2009-02-26 08:33:44 51°17.426 2°52.566 -999 -999 -999 -999 -999
2009-02-26 08:33:49 51°17.438 2°52.579 -999 -999 -999 -999 -999
2009-02-26 08:33:54 51°17.45 2°52.591 -999 -999 -999 -999 -999
2009-02-26 08:33:59 51°17.461 2°52.606 -999 -999 -999 -999 -999
2009-02-26 08:34:04 51°17.473 2°52.618 -999 -999 -999 -999 -999
2009-02-26 08:34:09 51°17.483 2°52.635 -999 -999 -999 -999 -999
2009-02-26 08:34:14 51°17.495 2°52.648 -999 -999 -999 -999 -999
2009-02-26 08:34:19 51°17.506 2°52.664 -999 -999 -999 -999 -999
2009-02-26 08:34:24 51°17.518 2°52.678 -999 -999 -999 -999 -999
2009-02-26 08:34:29 51°17.528 2°52.694 -999 -999 -999 -999 -999
2009-02-26 08:34:34 51°17.539 2°52.709 -999 -999 -999 -999 -999
2009-02-26 08:34:39 51°17.55 2°52.724 -999 -999 -999 -999 -999
2009-02-26 08:34:44 51°17.561 2°52.74 -999 -999 -999 -999 -999
2009-02-26 08:34:49 51°17.571 2°52.755 -999 -999 -999 -999 -999
2009-02-26 08:34:54 51°17.582 2°52.77 -999 -999 -999 -999 -999
2009-02-26 08:34:59 51°17.593 2°52.786 -999 -999 -999 -999 -999
2009-02-26 08:35:04 51°17.603 2°52.802 -999 -999 -999 -999 -999
2009-02-26 08:35:09 51°17.614 2°52.818 -999 -999 -999 -999 -999
2009-02-26 08:35:14 51°17.624 2°52.835 -999 -999 -999 -999 -999
2009-02-26 08:35:19 51°17.635 2°52.851 -999 -999 -999 -999 -999
2009-02-26 08:35:24 51°17.645 2°52.867 -999 -999 -999 -999 -999
2009-02-26 08:35:29 51°17.656 2°52.883 -999 -999 -999 -999 -999
2009-02-26 08:35:34 51°17.666 2°52.899 -999 -999 -999 -999 -999
2009-02-26 08:35:39 51°17.677 2°52.915 -999 -999 -999 -999 -999
2009-02-26 08:35:44 51°17.687 2°52.931 -999 -999 -999 -999 -999
2009-02-26 08:35:49 51°17.698 2°52.946 -999 -999 -999 -999 -999
2009-02-26 08:35:54 51°17.708 2°52.962 -999 -999 -999 -999 -999
2009-02-26 08:35:59 51°17.719 2°52.978 -999 -999 -999 -999 -999
2009-02-26 08:36:04 51°17.729 2°52.995 -999 -999 -999 -999 -999
2009-02-26 08:36:09 51°17.74 2°53.01 -999 -999 -999 -999 -999
2009-02-26 08:36:14 51°17.749 2°53.027 -999 -999 -999 -999 -999
2009-02-26 08:36:19 51°17.76 2°53.043 -999 -999 -999 -999 -999
2009-02-26 08:36:24 51°17.77 2°53.059 -999 -999 -999 -999 -999
2009-02-26 08:36:29 51°17.78 2°53.075 -999 -999 -999 -999 -999
2009-02-26 08:36:34 51°17.79 2°53.092 -999 -999 -999 -999 -999
2009-02-26 08:36:39 51°17.8 2°53.108 -999 -999 -999 -999 -999
2009-02-26 08:36:44 51°17.81 2°53.124 -999 -999 -999 -999 -999
2009-02-26 08:36:49 51°17.82 2°53.141 -999 -999 -999 -999 -999
2009-02-26 08:36:54 51°17.831 2°53.156 -999 -999 -999 -999 -999
2009-02-26 08:36:59 51°17.84 2°53.173 -999 -999 -999 -999 -999
2009-02-26 08:37:04 51°17.85 2°53.188 -999 -999 -999 -999 -999
2009-02-26 08:37:09 51°17.86 2°53.205 -999 -999 -999 -999 -999
2009-02-26 08:37:14 51°17.871 2°53.221 -999 -999 -999 -999 -999
2009-02-26 08:37:19 51°17.881 2°53.238 -999 -999 -999 -999 -999
2009-02-26 08:37:24 51°17.892 2°53.252 -999 -999 -999 -999 -999
2009-02-26 08:37:29 51°17.901 2°53.27 -999 -999 -999 -999 -999
2009-02-26 08:37:34 51°17.913 2°53.284 -999 -999 -999 -999 -999
2009-02-26 08:37:39 51°17.922 2°53.3 -999 -999 -999 -999 -999
2009-02-26 08:37:44 51°17.933 2°53.316 -999 -999 -999 -999 -999
2009-02-26 08:37:49 51°17.943 2°53.332 -999 -999 -999 -999 -999
2009-02-26 08:37:54 51°17.954 2°53.347 -999 -999 -999 -999 -999
2009-02-26 08:37:59 51°17.964 2°53.363 -999 -999 -999 -999 -999
2009-02-26 08:38:04 51°17.974 2°53.379 -999 -999 -999 -999 -999
2009-02-26 08:38:09 51°17.985 2°53.394 -999 -999 -999 -999 -999
2009-02-26 08:38:14 51°17.994 2°53.411 -999 -999 -999 -999 -999
2009-02-26 08:38:19 51°18.006 2°53.424 -999 -999 -999 -999 -999
2009-02-26 08:38:24 51°18.015 2°53.441 -999 -999 -999 -999 -999
2009-02-26 08:38:29 51°18.026 2°53.455 -999 -999 -999 -999 -999
2009-02-26 08:38:34 51°18.037 2°53.471 -999 -999 -999 -999 -999
2009-02-26 08:38:39 51°18.047 2°53.487 -999 -999 -999 -999 -999
2009-02-26 08:38:44 51°18.058 2°53.501 -999 -999 -999 -999 -999
2009-02-26 08:38:49 51°18.068 2°53.518 -999 -999 -999 -999 -999
2009-02-26 08:38:54 51°18.078 2°53.533 -999 -999 -999 -999 -999
2009-02-26 08:38:59 51°18.088 2°53.55 -999 -999 -999 -999 -999
2009-02-26 08:39:04 51°18.099 2°53.564 -999 -999 -999 -999 -999
2009-02-26 08:39:09 51°18.108 2°53.581 -999 -999 -999 -999 -999
2009-02-26 08:39:14 51°18.119 2°53.595 -999 -999 -999 -999 -999
2009-02-26 08:39:19 51°18.129 2°53.612 -999 -999 -999 -999 -999
2009-02-26 08:39:24 51°18.139 2°53.627 -999 -999 -999 -999 -999
2009-02-26 08:39:29 51°18.15 2°53.643 -999 -999 -999 -999 -999
2009-02-26 08:39:34 51°18.159 2°53.66 -999 -999 -999 -999 -999
2009-02-26 08:39:39 51°18.17 2°53.674 -999 -999 -999 -999 -999
2009-02-26 08:39:44 51°18.179 2°53.692 -999 -999 -999 -999 -999
2009-02-26 08:39:49 51°18.19 2°53.707 -999 -999 -999 -999 -999
2009-02-26 08:39:54 51°18.198 2°53.725 -999 -999 -999 -999 -999
2009-02-26 08:39:59 51°18.209 2°53.741 -999 -999 -999 -999 -999
2009-02-26 08:40:04 51°18.218 2°53.759 -999 -999 -999 -999 -999
2009-02-26 08:40:09 51°18.227 2°53.776 -999 -999 -999 -999 -999
2009-02-26 08:40:14 51°18.236 2°53.795 -999 -999 -999 -999 -999
2009-02-26 08:40:19 51°18.244 2°53.813 -999 -999 -999 -999 -999
2009-02-26 08:40:24 51°18.252 2°53.833 -999 -999 -999 -999 -999
2009-02-26 08:40:29 51°18.26 2°53.851 -999 -999 -999 -999 -999
2009-02-26 08:40:34 51°18.266 2°53.872 -999 -999 -999 -999 -999
2009-02-26 08:40:39 51°18.275 2°53.89 -999 -999 -999 -999 -999
2009-02-26 08:40:44 51°18.281 2°53.91 -999 -999 -999 -999 -999
2009-02-26 08:40:49 51°18.289 2°53.93 -999 -999 -999 -999 -999
2009-02-26 08:40:54 51°18.295 2°53.951 -999 -999 -999 -999 -999
2009-02-26 08:40:59 51°18.304 2°53.97 -999 -999 -999 -999 -999
2009-02-26 08:41:04 51°18.31 2°53.991 -999 -999 -999 -999 -999
2009-02-26 08:41:09 51°18.318 2°54.01 -999 -999 -999 -999 -999
2009-02-26 08:41:14 51°18.325 2°54.031 -999 -999 -999 -999 -999
2009-02-26 08:41:19 51°18.332 2°54.051 -999 -999 -999 -999 -999
2009-02-26 08:41:24 51°18.338 2°54.072 -999 -999 -999 -999 -999
2009-02-26 08:41:29 51°18.345 2°54.092 -999 -999 -999 -999 -999
2009-02-26 08:41:34 51°18.351 2°54.113 -999 -999 -999 -999 -999
2009-02-26 08:41:39 51°18.358 2°54.134 -999 -999 -999 -999 -999
2009-02-26 08:41:44 51°18.365 2°54.154 -999 -999 -999 -999 -999
2009-02-26 08:41:49 51°18.371 2°54.176 -999 -999 -999 -999 -999
2009-02-26 08:41:54 51°18.379 2°54.196 -999 -999 -999 -999 -999
2009-02-26 08:41:59 51°18.385 2°54.218 -999 -999 -999 -999 -999
2009-02-26 08:42:04 51°18.393 2°54.237 -999 -999 -999 -999 -999
2009-02-26 08:42:09 51°18.399 2°54.258 -999 -999 -999 -999 -999
2009-02-26 08:42:14 51°18.406 2°54.278 -999 -999 -999 -999 -999
2009-02-26 08:42:19 51°18.414 2°54.298 -999 -999 -999 -999 -999
2009-02-26 08:42:24 51°18.421 2°54.319 -999 -999 -999 -999 -999
2009-02-26 08:42:29 51°18.428 2°54.339 -999 -999 -999 -999 -999
2009-02-26 08:42:34 51°18.435 2°54.359 -999 -999 -999 -999 -999
2009-02-26 08:42:39 51°18.443 2°54.379 -999 -999 -999 -999 -999
2009-02-26 08:42:44 51°18.45 2°54.399 -999 -999 -999 -999 -999
2009-02-26 08:42:49 51°18.457 2°54.419 -999 -999 -999 -999 -999
2009-02-26 08:42:54 51°18.464 2°54.44 -999 -999 -999 -999 -999
2009-02-26 08:42:59 51°18.472 2°54.46 -999 -999 -999 -999 -999
2009-02-26 08:43:04 51°18.479 2°54.479 -999 -999 -999 -999 -999
2009-02-26 08:43:09 51°18.486 2°54.5 -999 -999 -999 -999 -999
2009-02-26 08:43:14 51°18.494 2°54.519 -999 -999 -999 -999 -999
2009-02-26 08:43:19 51°18.501 2°54.539 -999 -999 -999 -999 -999
2009-02-26 08:43:24 51°18.508 2°54.56 -999 -999 -999 -999 -999
2009-02-26 08:43:29 51°18.516 2°54.578 -999 -999 -999 -999 -999
2009-02-26 08:43:34 51°18.522 2°54.599 -999 -999 -999 -999 -999
2009-02-26 08:43:39 51°18.531 2°54.618 -999 -999 -999 -999 -999
2009-02-26 08:43:44 51°18.537 2°54.639 -999 -999 -999 -999 -999
2009-02-26 08:43:49 51°18.545 2°54.658 -999 -999 -999 -999 -999
2009-02-26 08:43:54 51°18.552 2°54.678 -999 -999 -999 -999 -999
2009-02-26 08:43:59 51°18.559 2°54.698 -999 -999 -999 -999 -999
2009-02-26 08:44:04 51°18.566 2°54.718 -999 -999 -999 -999 -999
2009-02-26 08:44:09 51°18.573 2°54.738 -999 -999 -999 -999 -999
2009-02-26 08:44:14 51°18.58 2°54.758 -999 -999 -999 -999 -999
2009-02-26 08:44:19 51°18.588 2°54.778 -999 -999 -999 -999 -999
2009-02-26 08:44:24 51°18.595 2°54.797 -999 -999 -999 -999 -999
2009-02-26 08:44:29 51°18.602 2°54.817 -999 -999 -999 -999 -999
2009-02-26 08:44:34 51°18.61 2°54.837 -999 -999 -999 -999 -999
2009-02-26 08:44:39 51°18.617 2°54.857 -999 -999 -999 -999 -999
2009-02-26 08:44:44 51°18.625 2°54.876 -999 -999 -999 -999 -999
2009-02-26 08:44:49 51°18.631 2°54.896 -999 -999 -999 -999 -999
2009-02-26 08:44:54 51°18.639 2°54.915 -999 -999 -999 -999 -999
2009-02-26 08:44:59 51°18.646 2°54.935 -999 -999 -999 -999 -999
2009-02-26 08:45:04 51°18.653 2°54.955 -999 -999 -999 -999 -999
2009-02-26 08:45:09 51°18.661 2°54.974 -999 -999 -999 -999 -999
2009-02-26 08:45:14 51°18.667 2°54.995 -999 -999 -999 -999 -999
2009-02-26 08:45:19 51°18.675 2°55.014 -999 -999 -999 -999 -999
2009-02-26 08:45:24 51°18.682 2°55.034 -999 -999 -999 -999 -999
2009-02-26 08:45:29 51°18.69 2°55.054 -999 -999 -999 -999 -999
2009-02-26 08:45:34 51°18.698 2°55.073 -999 -999 -999 -999 -999
2009-02-26 08:45:39 51°18.705 2°55.093 -999 -999 -999 -999 -999
2009-02-26 08:45:44 51°18.713 2°55.112 -999 -999 -999 -999 -999
2009-02-26 08:45:49 51°18.72 2°55.133 -999 -999 -999 -999 -999
2009-02-26 08:45:54 51°18.728 2°55.152 -999 -999 -999 -999 -999
2009-02-26 08:45:59 51°18.734 2°55.172 -999 -999 -999 -999 -999
2009-02-26 08:46:04 51°18.741 2°55.192 -999 -999 -999 -999 -999
2009-02-26 08:46:09 51°18.748 2°55.212 -999 -999 -999 -999 -999
2009-02-26 08:46:14 51°18.756 2°55.232 -999 -999 -999 -999 -999
2009-02-26 08:46:19 51°18.761 2°55.253 -999 -999 -999 -999 -999
2009-02-26 08:46:24 51°18.768 2°55.273 -999 -999 -999 -999 -999
2009-02-26 08:46:29 51°18.775 2°55.293 -999 -999 -999 -999 -999
2009-02-26 08:46:34 51°18.782 2°55.313 -999 -999 -999 -999 -999
2009-02-26 08:46:39 51°18.789 2°55.333 -999 -999 -999 -999 -999
2009-02-26 08:46:44 51°18.795 2°55.354 -999 -999 -999 -999 -999
2009-02-26 08:46:49 51°18.801 2°55.374 -999 -999 -999 -999 -999
2009-02-26 08:46:54 51°18.808 2°55.394 -999 -999 -999 -999 -999
2009-02-26 08:46:59 51°18.814 2°55.415 -999 -999 -999 -999 -999
2009-02-26 08:47:04 51°18.821 2°55.434 -999 -999 -999 -999 -999
2009-02-26 08:47:09 51°18.827 2°55.455 -999 -999 -999 -999 -999
2009-02-26 08:47:14 51°18.833 2°55.475 -999 -999 -999 -999 -999
2009-02-26 08:47:19 51°18.839 2°55.495 -999 -999 -999 -999 -999
2009-02-26 08:47:24 51°18.845 2°55.515 -999 -999 -999 -999 -999
2009-02-26 08:47:29 51°18.852 2°55.536 -999 -999 -999 -999 -999
2009-02-26 08:47:34 51°18.858 2°55.557 -999 -999 -999 -999 -999
2009-02-26 08:47:39 51°18.864 2°55.577 -999 -999 -999 -999 -999
2009-02-26 08:47:44 51°18.87 2°55.597 -999 -999 -999 -999 -999
2009-02-26 08:47:49 51°18.876 2°55.617 -999 -999 -999 -999 -999
2009-02-26 08:47:54 51°18.883 2°55.637 -999 -999 -999 -999 -999
2009-02-26 08:47:59 51°18.889 2°55.658 -999 -999 -999 -999 -999
2009-02-26 08:48:04 51°18.896 2°55.677 -999 -999 -999 -999 -999
2009-02-26 08:48:09 51°18.903 2°55.697 -999 -999 -999 -999 -999
2009-02-26 08:48:14 51°18.909 2°55.717 -999 -999 -999 -999 -999
2009-02-26 08:48:19 51°18.916 2°55.737 -999 -999 -999 -999 -999
2009-02-26 08:48:24 51°18.922 2°55.757 -999 -999 -999 -999 -999
2009-02-26 08:48:29 51°18.928 2°55.777 -999 -999 -999 -999 -999
2009-02-26 08:48:34 51°18.935 2°55.796 -999 -999 -999 -999 -999
2009-02-26 08:48:39 51°18.94 2°55.817 -999 -999 -999 -999 -999
2009-02-26 08:48:44 51°18.948 2°55.836 -999 -999 -999 -999 -999
2009-02-26 08:48:49 51°18.953 2°55.856 -999 -999 -999 -999 -999
2009-02-26 08:48:54 51°18.96 2°55.875 -999 -999 -999 -999 -999
2009-02-26 08:48:59 51°18.966 2°55.895 -999 -999 -999 -999 -999
2009-02-26 08:49:04 51°18.972 2°55.915 -999 -999 -999 -999 -999
2009-02-26 08:49:09 51°18.979 2°55.934 -999 -999 -999 -999 -999
2009-02-26 08:49:13 51°18.983 2°55.95 -999 -999 -999 -999 -999
2009-02-26 08:49:19 51°18.993 2°55.972 -999 -999 -999 -999 -999
2009-02-26 08:49:24 51°18.998 2°55.993 -999 -999 -999 -999 -999
2009-02-26 08:49:29 51°19.006 2°56.01 -999 -999 -999 -999 -999
2009-02-26 08:49:34 51°19.011 2°56.031 -999 -999 -999 -999 -999
2009-02-26 08:49:39 51°19.02 2°56.049 -999 -999 -999 -999 -999
2009-02-26 08:49:44 51°19.025 2°56.07 -999 -999 -999 -999 -999
2009-02-26 08:49:49 51°19.032 2°56.088 -999 -999 -999 -999 -999
2009-02-26 08:49:54 51°19.038 2°56.109 -999 -999 -999 -999 -999
2009-02-26 08:49:59 51°19.045 2°56.128 -999 -999 -999 -999 -999
2009-02-26 08:50:04 51°19.052 2°56.147 -999 -999 -999 -999 -999
2009-02-26 08:50:09 51°19.058 2°56.167 -999 -999 -999 -999 -999
2009-02-26 08:50:14 51°19.065 2°56.186 -999 -999 -999 -999 -999
2009-02-26 08:50:19 51°19.071 2°56.206 -999 -999 -999 -999 -999
2009-02-26 08:50:24 51°19.078 2°56.225 -999 -999 -999 -999 -999
2009-02-26 08:50:29 51°19.085 2°56.244 -999 -999 -999 -999 -999
2009-02-26 08:50:34 51°19.092 2°56.263 -999 -999 -999 -999 -999
2009-02-26 08:50:39 51°19.098 2°56.283 -999 -999 -999 -999 -999
2009-02-26 08:50:44 51°19.104 2°56.302 -999 -999 -999 -999 -999
2009-02-26 08:50:49 51°19.111 2°56.321 -999 -999 -999 -999 -999
2009-02-26 08:50:54 51°19.117 2°56.341 -999 -999 -999 -999 -999
2009-02-26 08:50:59 51°19.124 2°56.36 -999 -999 -999 -999 -999
2009-02-26 08:51:04 51°19.131 2°56.379 -999 -999 -999 -999 -999
2009-02-26 08:51:09 51°19.137 2°56.399 -999 -999 -999 -999 -999
2009-02-26 08:51:14 51°19.145 2°56.417 -999 -999 -999 -999 -999
2009-02-26 08:51:19 51°19.151 2°56.437 -999 -999 -999 -999 -999
2009-02-26 08:51:24 51°19.158 2°56.456 -999 -999 -999 -999 -999
2009-02-26 08:51:29 51°19.165 2°56.475 -999 -999 -999 -999 -999
2009-02-26 08:51:34 51°19.172 2°56.495 -999 -999 -999 -999 -999
2009-02-26 08:51:39 51°19.179 2°56.515 -999 -999 -999 -999 -999
2009-02-26 08:51:44 51°19.185 2°56.534 -999 -999 -999 -999 -999
2009-02-26 08:51:49 51°19.192 2°56.553 -999 -999 -999 -999 -999
2009-02-26 08:51:54 51°19.198 2°56.574 -999 -999 -999 -999 -999
2009-02-26 08:51:59 51°19.206 2°56.592 -999 -999 -999 -999 -999
2009-02-26 08:52:04 51°19.211 2°56.612 -999 -999 -999 -999 -999
2009-02-26 08:52:09 51°19.218 2°56.631 -999 -999 -999 -999 -999
2009-02-26 08:52:14 51°19.224 2°56.651 -999 -999 -999 -999 -999
2009-02-26 08:52:19 51°19.231 2°56.671 -999 -999 -999 -999 -999
2009-02-26 08:52:24 51°19.237 2°56.69 -999 -999 -999 -999 -999
2009-02-26 08:52:29 51°19.244 2°56.71 -999 -999 -999 -999 -999
2009-02-26 08:52:34 51°19.251 2°56.728 -999 -999 -999 -999 -999
2009-02-26 08:52:39 51°19.257 2°56.749 -999 -999 -999 -999 -999
2009-02-26 08:52:44 51°19.264 2°56.768 -999 -999 -999 -999 -999
2009-02-26 08:52:49 51°19.27 2°56.788 -999 -999 -999 -999 -999
2009-02-26 08:52:54 51°19.277 2°56.807 -999 -999 -999 -999 -999
2009-02-26 08:52:59 51°19.284 2°56.826 -999 -999 -999 -999 -999
2009-02-26 08:53:04 51°19.291 2°56.845 -999 -999 -999 -999 -999
2009-02-26 08:53:09 51°19.297 2°56.865 -999 -999 -999 -999 -999
2009-02-26 08:53:14 51°19.305 2°56.884 -999 -999 -999 -999 -999
2009-02-26 08:53:19 51°19.311 2°56.903 -999 -999 -999 -999 -999
2009-02-26 08:53:24 51°19.318 2°56.922 -999 -999 -999 -999 -999
2009-02-26 08:53:29 51°19.325 2°56.942 -999 -999 -999 -999 -999
2009-02-26 08:53:34 51°19.332 2°56.961 -999 -999 -999 -999 -999
2009-02-26 08:53:39 51°19.339 2°56.98 -999 -999 -999 -999 -999
2009-02-26 08:53:44 51°19.346 2°56.999 -999 -999 -999 -999 -999
2009-02-26 08:53:49 51°19.352 2°57.019 -999 -999 -999 -999 -999
2009-02-26 08:53:54 51°19.359 2°57.039 -999 -999 -999 -999 -999
2009-02-26 08:53:59 51°19.365 2°57.059 -999 -999 -999 -999 -999
2009-02-26 08:54:04 51°19.372 2°57.079 -999 -999 -999 -999 -999
2009-02-26 08:54:09 51°19.378 2°57.099 -999 -999 -999 -999 -999
2009-02-26 08:54:14 51°19.385 2°57.118 -999 -999 -999 -999 -999
2009-02-26 08:54:19 51°19.391 2°57.138 -999 -999 -999 -999 -999
2009-02-26 08:54:24 51°19.398 2°57.157 -999 -999 -999 -999 -999
2009-02-26 08:54:29 51°19.405 2°57.176 -999 -999 -999 -999 -999
2009-02-26 08:54:34 51°19.41 2°57.197 -999 -999 -999 -999 -999
2009-02-26 08:54:39 51°19.418 2°57.215 -999 -999 -999 -999 -999
2009-02-26 08:54:44 51°19.423 2°57.236 -999 -999 -999 -999 -999
2009-02-26 08:54:49 51°19.431 2°57.255 -999 -999 -999 -999 -999
2009-02-26 08:54:54 51°19.436 2°57.276 -999 -999 -999 -999 -999
2009-02-26 08:54:59 51°19.444 2°57.294 -999 -999 -999 -999 -999
2009-02-26 08:55:04 51°19.449 2°57.315 -999 -999 -999 -999 -999
2009-02-26 08:55:09 51°19.457 2°57.334 -999 -999 -999 -999 -999
2009-02-26 08:55:14 51°19.462 2°57.355 -999 -999 -999 -999 -999
2009-02-26 08:55:19 51°19.47 2°57.374 -999 -999 -999 -999 -999
2009-02-26 08:55:24 51°19.475 2°57.394 -999 -999 -999 -999 -999
2009-02-26 08:55:29 51°19.483 2°57.413 -999 -999 -999 -999 -999
2009-02-26 08:55:33 51°19.487 2°57.429 -999 -999 -999 -999 -999
2009-02-26 08:55:39 51°19.496 2°57.452 -999 -999 -999 -999 -999
2009-02-26 08:55:44 51°19.503 2°57.472 -999 -999 -999 -999 -999
2009-02-26 08:55:49 51°19.51 2°57.491 -999 -999 -999 -999 -999
2009-02-26 08:55:54 51°19.517 2°57.511 -999 -999 -999 -999 -999
2009-02-26 08:55:59 51°19.524 2°57.529 -999 -999 -999 -999 -999
2009-02-26 08:56:04 51°19.531 2°57.549 -999 -999 -999 -999 -999
2009-02-26 08:56:09 51°19.538 2°57.568 -999 -999 -999 -999 -999
2009-02-26 08:56:14 51°19.545 2°57.588 -999 -999 -999 -999 -999
2009-02-26 08:56:19 51°19.552 2°57.607 -999 -999 -999 -999 -999
2009-02-26 08:56:24 51°19.559 2°57.627 -999 -999 -999 -999 -999
2009-02-26 08:56:29 51°19.565 2°57.647 -999 -999 -999 -999 -999
2009-02-26 08:56:34 51°19.573 2°57.666 -999 -999 -999 -999 -999
2009-02-26 08:56:39 51°19.579 2°57.686 -999 -999 -999 -999 -999
2009-02-26 08:56:44 51°19.585 2°57.707 -999 -999 -999 -999 -999
2009-02-26 08:56:49 51°19.592 2°57.726 -999 -999 -999 -999 -999
2009-02-26 08:56:54 51°19.599 2°57.746 -999 -999 -999 -999 -999
2009-02-26 08:56:59 51°19.605 2°57.766 -999 -999 -999 -999 -999
2009-02-26 08:57:04 51°19.611 2°57.786 -999 -999 -999 -999 -999
2009-02-26 08:57:09 51°19.619 2°57.806 -999 -999 -999 -999 -999
2009-02-26 08:57:14 51°19.625 2°57.826 -999 -999 -999 -999 -999
2009-02-26 08:57:19 51°19.631 2°57.846 -999 -999 -999 -999 -999
2009-02-26 08:57:24 51°19.639 2°57.864 -999 -999 -999 -999 -999
2009-02-26 08:57:29 51°19.645 2°57.885 -999 -999 -999 -999 -999
2009-02-26 08:57:34 51°19.653 2°57.904 -999 -999 -999 -999 -999
2009-02-26 08:57:39 51°19.66 2°57.923 -999 -999 -999 -999 -999
2009-02-26 08:57:44 51°19.666 2°57.943 -999 -999 -999 -999 -999
2009-02-26 08:57:49 51°19.674 2°57.961 -999 -999 -999 -999 -999
2009-02-26 08:57:54 51°19.681 2°57.981 -999 -999 -999 -999 -999
2009-02-26 08:57:59 51°19.688 2°58.001 -999 -999 -999 -999 -999
2009-02-26 08:58:04 51°19.695 2°58.02 -999 -999 -999 -999 -999
2009-02-26 08:58:09 51°19.702 2°58.04 -999 -999 -999 -999 -999
2009-02-26 08:58:14 51°19.708 2°58.059 -999 -999 -999 -999 -999
2009-02-26 08:58:19 51°19.715 2°58.079 -999 -999 -999 -999 -999
2009-02-26 08:58:24 51°19.722 2°58.1 -999 -999 -999 -999 -999
2009-02-26 08:58:29 51°19.729 2°58.119 -999 -999 -999 -999 -999
2009-02-26 08:58:34 51°19.735 2°58.14 -999 -999 -999 -999 -999
2009-02-26 08:58:39 51°19.742 2°58.16 -999 -999 -999 -999 -999
2009-02-26 08:58:44 51°19.749 2°58.179 -999 -999 -999 -999 -999
2009-02-26 08:58:49 51°19.756 2°58.199 -999 -999 -999 -999 -999
2009-02-26 08:58:54 51°19.763 2°58.218 -999 -999 -999 -999 -999
2009-02-26 08:58:59 51°19.769 2°58.238 -999 -999 -999 -999 -999
2009-02-26 08:59:04 51°19.777 2°58.257 -999 -999 -999 -999 -999
2009-02-26 08:59:09 51°19.784 2°58.277 -999 -999 -999 -999 -999
2009-02-26 08:59:14 51°19.79 2°58.297 -999 -999 -999 -999 -999
2009-02-26 08:59:19 51°19.797 2°58.316 -999 -999 -999 -999 -999
2009-02-26 08:59:24 51°19.804 2°58.336 -999 -999 -999 -999 -999
2009-02-26 08:59:29 51°19.811 2°58.355 -999 -999 -999 -999 -999
2009-02-26 08:59:34 51°19.818 2°58.375 -999 -999 -999 -999 -999
2009-02-26 08:59:39 51°19.825 2°58.395 -999 -999 -999 -999 -999
2009-02-26 08:59:44 51°19.831 2°58.415 -999 -999 -999 -999 -999
2009-02-26 08:59:49 51°19.839 2°58.434 -999 -999 -999 -999 -999
2009-02-26 08:59:54 51°19.845 2°58.455 -999 -999 -999 -999 -999
2009-02-26 08:59:59 51°19.852 2°58.474 -999 -999 -999 -999 -999
2009-02-26 09:00:04 51°19.858 2°58.494 -999 -999 -999 -999 -999
2009-02-26 09:00:09 51°19.866 2°58.513 -999 -999 -999 -999 -999
2009-02-26 09:00:14 51°19.872 2°58.533 -999 -999 -999 -999 -999
2009-02-26 09:00:19 51°19.879 2°58.553 -999 -999 -999 -999 -999
2009-02-26 09:00:24 51°19.887 2°58.572 -999 -999 -999 -999 -999
2009-02-26 09:00:29 51°19.894 2°58.591 -999 -999 -999 -999 -999
2009-02-26 09:00:34 51°19.901 2°58.61 -999 -999 -999 -999 -999
2009-02-26 09:00:39 51°19.909 2°58.629 -999 -999 -999 -999 -999
2009-02-26 09:00:44 51°19.915 2°58.649 -999 -999 -999 -999 -999
2009-02-26 09:00:49 51°19.923 2°58.669 -999 -999 -999 -999 -999
2009-02-26 09:00:54 51°19.929 2°58.689 -999 -999 -999 -999 -999
2009-02-26 09:00:59 51°19.936 2°58.708 -999 -999 -999 -999 -999
2009-02-26 09:01:04 51°19.943 2°58.729 -999 -999 -999 -999 -999
2009-02-26 09:01:09 51°19.951 2°58.748 -999 -999 -999 -999 -999
2009-02-26 09:01:14 51°19.957 2°58.768 -999 -999 -999 -999 -999
2009-02-26 09:01:19 51°19.965 2°58.787 -999 -999 -999 -999 -999
2009-02-26 09:01:24 51°19.972 2°58.807 -999 -999 -999 -999 -999
2009-02-26 09:01:29 51°19.978 2°58.827 -999 -999 -999 -999 -999
2009-02-26 09:01:34 51°19.986 2°58.846 -999 -999 -999 -999 -999
2009-02-26 09:01:39 51°19.992 2°58.866 -999 -999 -999 -999 -999
2009-02-26 09:01:44 51°20 2°58.884 -999 -999 -999 -999 -999
2009-02-26 09:01:49 51°20.006 2°58.905 -999 -999 -999 -999 -999
2009-02-26 09:01:54 51°20.015 2°58.922 -999 -999 -999 -999 -999
2009-02-26 09:01:59 51°20.02 2°58.943 -999 -999 -999 -999 -999
2009-02-26 09:02:04 51°20.029 2°58.961 -999 -999 -999 -999 -999
2009-02-26 09:02:09 51°20.034 2°58.982 -999 -999 -999 -999 -999
2009-02-26 09:02:14 51°20.043 2°58.999 -999 -999 -999 -999 -999
2009-02-26 09:02:19 51°20.048 2°59.02 -999 -999 -999 -999 -999
2009-02-26 09:02:24 51°20.056 2°59.038 -999 -999 -999 -999 -999
2009-02-26 09:02:29 51°20.062 2°59.059 -999 -999 -999 -999 -999
2009-02-26 09:02:34 51°20.071 2°59.077 -999 -999 -999 -999 -999
2009-02-26 09:02:39 51°20.076 2°59.098 -999 -999 -999 -999 -999
2009-02-26 09:02:44 51°20.084 2°59.117 -999 -999 -999 -999 -999
2009-02-26 09:02:49 51°20.09 2°59.137 -999 -999 -999 -999 -999
2009-02-26 09:02:54 51°20.097 2°59.157 -999 -999 -999 -999 -999
2009-02-26 09:02:59 51°20.105 2°59.176 -999 -999 -999 -999 -999
2009-02-26 09:03:04 51°20.111 2°59.196 -999 -999 -999 -999 -999
2009-02-26 09:03:09 51°20.118 2°59.216 -999 -999 -999 -999 -999
2009-02-26 09:03:14 51°20.126 2°59.235 -999 -999 -999 -999 -999
2009-02-26 09:03:19 51°20.131 2°59.255 -999 -999 -999 -999 -999
2009-02-26 09:03:24 51°20.139 2°59.274 -999 -999 -999 -999 -999
2009-02-26 09:03:29 51°20.145 2°59.295 -999 -999 -999 -999 -999
2009-02-26 09:03:34 51°20.152 2°59.315 -999 -999 -999 -999 -999
2009-02-26 09:03:39 51°20.159 2°59.335 -999 -999 -999 -999 -999
2009-02-26 09:03:44 51°20.166 2°59.354 -999 -999 -999 -999 -999
2009-02-26 09:03:49 51°20.173 2°59.374 -999 -999 -999 -999 -999
2009-02-26 09:03:54 51°20.18 2°59.394 -999 -999 -999 -999 -999
2009-02-26 09:03:59 51°20.188 2°59.413 -999 -999 -999 -999 -999
2009-02-26 09:04:04 51°20.194 2°59.433 -999 -999 -999 -999 -999
2009-02-26 09:04:09 51°20.202 2°59.453 -999 -999 -999 -999 -999
2009-02-26 09:04:14 51°20.209 2°59.472 -999 -999 -999 -999 -999
2009-02-26 09:04:19 51°20.215 2°59.492 -999 -999 -999 -999 -999
2009-02-26 09:04:24 51°20.222 2°59.512 -999 -999 -999 -999 -999
2009-02-26 09:04:29 51°20.23 2°59.532 -999 -999 -999 -999 -999
2009-02-26 09:04:34 51°20.236 2°59.553 -999 -999 -999 -999 -999
2009-02-26 09:04:39 51°20.244 2°59.572 -999 -999 -999 -999 -999
2009-02-26 09:04:44 51°20.25 2°59.592 -999 -999 -999 -999 -999
2009-02-26 09:04:49 51°20.257 2°59.612 -999 -999 -999 -999 -999
2009-02-26 09:04:54 51°20.265 2°59.632 -999 -999 -999 -999 -999
2009-02-26 09:04:59 51°20.271 2°59.652 -999 -999 -999 -999 -999
2009-02-26 09:05:04 51°20.279 2°59.672 -999 -999 -999 -999 -999
2009-02-26 09:05:09 51°20.286 2°59.693 -999 -999 -999 -999 -999
2009-02-26 09:05:14 51°20.293 2°59.713 -999 -999 -999 -999 -999
2009-02-26 09:05:19 51°20.299 2°59.733 -999 -999 -999 -999 -999
2009-02-26 09:05:24 51°20.307 2°59.754 -999 -999 -999 -999 -999
2009-02-26 09:05:29 51°20.313 2°59.775 -999 -999 -999 -999 -999
2009-02-26 09:05:34 51°20.32 2°59.795 -999 -999 -999 -999 -999
2009-02-26 09:05:39 51°20.327 2°59.816 -999 -999 -999 -999 -999
2009-02-26 09:05:44 51°20.334 2°59.836 -999 -999 -999 -999 -999
2009-02-26 09:05:49 51°20.34 2°59.857 -999 -999 -999 -999 -999
2009-02-26 09:05:54 51°20.348 2°59.878 -999 -999 -999 -999 -999
2009-02-26 09:05:59 51°20.355 2°59.898 -999 -999 -999 -999 -999
2009-02-26 09:06:04 51°20.362 2°59.919 -999 -999 -999 -999 -999
2009-02-26 09:06:09 51°20.37 2°59.94 -999 -999 -999 -999 -999
2009-02-26 09:06:14 51°20.376 2°59.961 -999 -999 -999 -999 -999
2009-02-26 09:06:19 51°20.384 2°59.981 -999 -999 -999 -999 -999
2009-02-26 09:06:24 51°20.391 3°0.002 -999 -999 -999 -999 -999
2009-02-26 09:06:29 51°20.399 3°0.021 -999 -999 -999 -999 -999
2009-02-26 09:06:34 51°20.405 3°0.042 -999 -999 -999 -999 -999
2009-02-26 09:06:39 51°20.413 3°0.062 -999 -999 -999 -999 -999
2009-02-26 09:06:44 51°20.419 3°0.083 -999 -999 -999 -999 -999
2009-02-26 09:06:49 51°20.428 3°0.102 -999 -999 -999 -999 -999
2009-02-26 09:06:54 51°20.433 3°0.124 -999 -999 -999 -999 -999
2009-02-26 09:06:59 51°20.44 3°0.144 -999 -999 -999 -999 -999
2009-02-26 09:07:04 51°20.447 3°0.164 -999 -999 -999 -999 -999
2009-02-26 09:07:09 51°20.453 3°0.185 -999 -999 -999 -999 -999
2009-02-26 09:07:14 51°20.461 3°0.205 -999 -999 -999 -999 -999
2009-02-26 09:07:19 51°20.468 3°0.225 -999 -999 -999 -999 -999
2009-02-26 09:07:24 51°20.474 3°0.246 -999 -999 -999 -999 -999
2009-02-26 09:07:29 51°20.482 3°0.266 -999 -999 -999 -999 -999
2009-02-26 09:07:34 51°20.488 3°0.286 -999 -999 -999 -999 -999
2009-02-26 09:07:39 51°20.496 3°0.307 -999 -999 -999 -999 -999
2009-02-26 09:07:44 51°20.503 3°0.327 -999 -999 -999 -999 -999
2009-02-26 09:07:49 51°20.51 3°0.347 -999 -999 -999 -999 -999
2009-02-26 09:07:54 51°20.517 3°0.367 -999 -999 -999 -999 -999
2009-02-26 09:07:59 51°20.524 3°0.387 -999 -999 -999 -999 -999
2009-02-26 09:08:04 51°20.53 3°0.408 -999 -999 -999 -999 -999
2009-02-26 09:08:09 51°20.538 3°0.428 -999 -999 -999 -999 -999
2009-02-26 09:08:14 51°20.544 3°0.45 -999 -999 -999 -999 -999
2009-02-26 09:08:19 51°20.551 3°0.47 -999 -999 -999 -999 -999
2009-02-26 09:08:24 51°20.557 3°0.492 -999 -999 -999 -999 -999
2009-02-26 09:08:29 51°20.565 3°0.512 -999 -999 -999 -999 -999
2009-02-26 09:08:34 51°20.571 3°0.533 -999 -999 -999 -999 -999
2009-02-26 09:08:39 51°20.579 3°0.554 -999 -999 -999 -999 -999
2009-02-26 09:08:44 51°20.585 3°0.575 -999 -999 -999 -999 -999
2009-02-26 09:08:49 51°20.593 3°0.595 -999 -999 -999 -999 -999
2009-02-26 09:08:54 51°20.6 3°0.616 -999 -999 -999 -999 -999
2009-02-26 09:08:59 51°20.607 3°0.637 -999 -999 -999 -999 -999
2009-02-26 09:09:04 51°20.614 3°0.657 -999 -999 -999 -999 -999
2009-02-26 09:09:09 51°20.621 3°0.678 -999 -999 -999 -999 -999
2009-02-26 09:09:14 51°20.628 3°0.698 -999 -999 -999 -999 -999
2009-02-26 09:09:19 51°20.636 3°0.719 -999 -999 -999 -999 -999
2009-02-26 09:09:24 51°20.643 3°0.738 -999 -999 -999 -999 -999
2009-02-26 09:09:29 51°20.65 3°0.759 -999 -999 -999 -999 -999
2009-02-26 09:09:34 51°20.658 3°0.779 -999 -999 -999 -999 -999
2009-02-26 09:09:39 51°20.665 3°0.8 -999 -999 -999 -999 -999
2009-02-26 09:09:44 51°20.672 3°0.821 -999 -999 -999 -999 -999
2009-02-26 09:09:49 51°20.679 3°0.841 -999 -999 -999 -999 -999
2009-02-26 09:09:54 51°20.685 3°0.862 -999 -999 -999 -999 -999
2009-02-26 09:09:59 51°20.694 3°0.882 -999 -999 -999 -999 -999
2009-02-26 09:10:04 51°20.7 3°0.904 -999 -999 -999 -999 -999
2009-02-26 09:10:09 51°20.708 3°0.924 -999 -999 -999 -999 -999
2009-02-26 09:10:14 51°20.714 3°0.945 -999 -999 -999 -999 -999
2009-02-26 09:10:19 51°20.722 3°0.965 -999 -999 -999 -999 -999
2009-02-26 09:10:24 51°20.729 3°0.986 -999 -999 -999 -999 -999
2009-02-26 09:10:29 51°20.737 3°1.006 -999 -999 -999 -999 -999
2009-02-26 09:10:34 51°20.743 3°1.028 -999 -999 -999 -999 -999
2009-02-26 09:10:39 51°20.75 3°1.049 -999 -999 -999 -999 -999
2009-02-26 09:10:44 51°20.757 3°1.069 -999 -999 -999 -999 -999
2009-02-26 09:10:49 51°20.763 3°1.091 -999 -999 -999 -999 -999
2009-02-26 09:10:54 51°20.772 3°1.11 -999 -999 -999 -999 -999
2009-02-26 09:10:59 51°20.776 3°1.133 -999 -999 -999 -999 -999
2009-02-26 09:11:04 51°20.786 3°1.152 -999 -999 -999 -999 -999
2009-02-26 09:11:09 51°20.79 3°1.175 -999 -999 -999 -999 -999
2009-02-26 09:11:14 51°20.799 3°1.194 -999 -999 -999 -999 -999
2009-02-26 09:11:19 51°20.805 3°1.216 -999 -999 -999 -999 -999
2009-02-26 09:11:24 51°20.813 3°1.236 -999 -999 -999 -999 -999
2009-02-26 09:11:29 51°20.819 3°1.257 -999 -999 -999 -999 -999
2009-02-26 09:11:33 51°20.826 3°1.273 -999 -999 -999 -999 -999
2009-02-26 09:11:39 51°20.833 3°1.299 -999 -999 -999 -999 -999
2009-02-26 09:11:44 51°20.84 3°1.32 -999 -999 -999 -999 -999
2009-02-26 09:11:49 51°20.848 3°1.341 -999 -999 -999 -999 -999
2009-02-26 09:11:54 51°20.854 3°1.362 -999 -999 -999 -999 -999
2009-02-26 09:11:59 51°20.862 3°1.382 -999 -999 -999 -999 -999
2009-02-26 09:12:04 51°20.868 3°1.404 -999 -999 -999 -999 -999
2009-02-26 09:12:09 51°20.876 3°1.424 -999 -999 -999 -999 -999
2009-02-26 09:12:14 51°20.883 3°1.446 -999 -999 -999 -999 -999
2009-02-26 09:12:19 51°20.89 3°1.467 -999 -999 -999 -999 -999
2009-02-26 09:12:24 51°20.897 3°1.488 -999 -999 -999 -999 -999
2009-02-26 09:12:29 51°20.904 3°1.509 -999 -999 -999 -999 -999
2009-02-26 09:12:34 51°20.911 3°1.53 -999 -999 -999 -999 -999
2009-02-26 09:12:39 51°20.918 3°1.552 -999 -999 -999 -999 -999
2009-02-26 09:12:44 51°20.925 3°1.573 -999 -999 -999 -999 -999
2009-02-26 09:12:49 51°20.932 3°1.594 -999 -999 -999 -999 -999
2009-02-26 09:12:54 51°20.94 3°1.615 -999 -999 -999 -999 -999
2009-02-26 09:12:59 51°20.946 3°1.636 -999 -999 -999 -999 -999
2009-02-26 09:13:04 51°20.954 3°1.657 -999 -999 -999 -999 -999
2009-02-26 09:13:09 51°20.962 3°1.678 -999 -999 -999 -999 -999
2009-02-26 09:13:14 51°20.968 3°1.699 -999 -999 -999 -999 -999
2009-02-26 09:13:19 51°20.977 3°1.719 -999 -999 -999 -999 -999
2009-02-26 09:13:24 51°20.983 3°1.741 -999 -999 -999 -999 -999
2009-02-26 09:13:29 51°20.991 3°1.761 -999 -999 -999 -999 -999
2009-02-26 09:13:34 51°20.998 3°1.782 -999 -999 -999 -999 -999
2009-02-26 09:13:39 51°21.005 3°1.803 -999 -999 -999 -999 -999
2009-02-26 09:13:44 51°21.013 3°1.823 -999 -999 -999 -999 -999
2009-02-26 09:13:49 51°21.019 3°1.845 -999 -999 -999 -999 -999
2009-02-26 09:13:54 51°21.028 3°1.864 -999 -999 -999 -999 -999
2009-02-26 09:13:59 51°21.035 3°1.885 -999 -999 -999 -999 -999
2009-02-26 09:14:04 51°21.041 3°1.907 -999 -999 -999 -999 -999
2009-02-26 09:14:09 51°21.05 3°1.926 -999 -999 -999 -999 -999
2009-02-26 09:14:14 51°21.057 3°1.948 -999 -999 -999 -999 -999
2009-02-26 09:14:19 51°21.064 3°1.968 -999 -999 -999 -999 -999
2009-02-26 09:14:24 51°21.072 3°1.989 -999 -999 -999 -999 -999
2009-02-26 09:14:29 51°21.078 3°2.011 -999 -999 -999 -999 -999
2009-02-26 09:14:34 51°21.087 3°2.03 -999 -999 -999 -999 -999
2009-02-26 09:14:39 51°21.092 3°2.053 -999 -999 -999 -999 -999
2009-02-26 09:14:44 51°21.1 3°2.073 -999 -999 -999 -999 -999
2009-02-26 09:14:49 51°21.107 3°2.094 -999 -999 -999 -999 -999
2009-02-26 09:14:54 51°21.114 3°2.115 -999 -999 -999 -999 -999
2009-02-26 09:14:59 51°21.121 3°2.135 -999 -999 -999 -999 -999
2009-02-26 09:15:04 51°21.128 3°2.157 -999 -999 -999 -999 -999
2009-02-26 09:15:09 51°21.136 3°2.177 -999 -999 -999 -999 -999
2009-02-26 09:15:14 51°21.142 3°2.198 -999 -999 -999 -999 -999
2009-02-26 09:15:19 51°21.151 3°2.218 -999 -999 -999 -999 -999
2009-02-26 09:15:24 51°21.157 3°2.24 -999 -999 -999 -999 -999
2009-02-26 09:15:29 51°21.165 3°2.259 -999 -999 -999 -999 -999
2009-02-26 09:15:34 51°21.171 3°2.281 -999 -999 -999 -999 -999
2009-02-26 09:15:39 51°21.178 3°2.302 -999 -999 -999 -999 -999
2009-02-26 09:15:44 51°21.183 3°2.324 -999 -999 -999 -999 -999
2009-02-26 09:15:49 51°21.189 3°2.345 -999 -999 -999 -999 -999
2009-02-26 09:15:54 51°21.192 3°2.369 -999 -999 -999 -999 -999
2009-02-26 09:15:59 51°21.2 3°2.39 -999 -999 -999 -999 -999
2009-02-26 09:16:04 51°21.203 3°2.413 -999 -999 -999 -999 -999
2009-02-26 09:16:09 51°21.209 3°2.435 -999 -999 -999 -999 -999
2009-02-26 09:16:14 51°21.212 3°2.459 -999 -999 -999 -999 -999
2009-02-26 09:16:19 51°21.217 3°2.481 -999 -999 -999 -999 -999
2009-02-26 09:16:24 51°21.221 3°2.504 -999 -999 -999 -999 -999
2009-02-26 09:16:29 51°21.225 3°2.527 -999 -999 -999 -999 -999
2009-02-26 09:16:34 51°21.229 3°2.55 -999 -999 -999 -999 -999
2009-02-26 09:16:39 51°21.232 3°2.573 -999 -999 -999 -999 -999
2009-02-26 09:16:44 51°21.236 3°2.597 -999 -999 -999 -999 -999
2009-02-26 09:16:49 51°21.24 3°2.62 -999 -999 -999 -999 -999
2009-02-26 09:16:54 51°21.243 3°2.643 -999 -999 -999 -999 -999
2009-02-26 09:16:59 51°21.246 3°2.667 -999 -999 -999 -999 -999
2009-02-26 09:17:04 51°21.251 3°2.689 -999 -999 -999 -999 -999
2009-02-26 09:17:09 51°21.253 3°2.713 -999 -999 -999 -999 -999
2009-02-26 09:17:14 51°21.258 3°2.735 -999 -999 -999 -999 -999
2009-02-26 09:17:19 51°21.261 3°2.759 -999 -999 -999 -999 -999
2009-02-26 09:17:24 51°21.266 3°2.782 -999 -999 -999 -999 -999
2009-02-26 09:17:29 51°21.268 3°2.806 -999 -999 -999 -999 -999
2009-02-26 09:17:34 51°21.273 3°2.828 -999 -999 -999 -999 -999
2009-02-26 09:17:39 51°21.276 3°2.851 -999 -999 -999 -999 -999
2009-02-26 09:17:44 51°21.281 3°2.874 -999 -999 -999 -999 -999
2009-02-26 09:17:49 51°21.284 3°2.897 -999 -999 -999 -999 -999
2009-02-26 09:17:54 51°21.288 3°2.921 -999 -999 -999 -999 -999
2009-02-26 09:17:59 51°21.291 3°2.944 -999 -999 -999 -999 -999
2009-02-26 09:18:04 51°21.295 3°2.967 -999 -999 -999 -999 -999
2009-02-26 09:18:09 51°21.298 3°2.991 -999 -999 -999 -999 -999
2009-02-26 09:18:14 51°21.302 3°3.014 -999 -999 -999 -999 -999
2009-02-26 09:18:19 51°21.306 3°3.038 -999 -999 -999 -999 -999
2009-02-26 09:18:24 51°21.309 3°3.061 -999 -999 -999 -999 -999
2009-02-26 09:18:29 51°21.312 3°3.084 -999 -999 -999 -999 -999
2009-02-26 09:18:34 51°21.317 3°3.107 -999 -999 -999 -999 -999
2009-02-26 09:18:39 51°21.32 3°3.13 -999 -999 -999 -999 -999
2009-02-26 09:18:44 51°21.324 3°3.154 -999 -999 -999 -999 -999
2009-02-26 09:18:49 51°21.327 3°3.177 -999 -999 -999 -999 -999
2009-02-26 09:18:54 51°21.33 3°3.201 -999 -999 -999 -999 -999
2009-02-26 09:18:59 51°21.334 3°3.224 -999 -999 -999 -999 -999
2009-02-26 09:19:04 51°21.337 3°3.248 -999 -999 -999 -999 -999
2009-02-26 09:19:09 51°21.342 3°3.27 -999 -999 -999 -999 -999
2009-02-26 09:19:14 51°21.345 3°3.294 -999 -999 -999 -999 -999
2009-02-26 09:19:19 51°21.349 3°3.317 -999 -999 -999 -999 -999
2009-02-26 09:19:24 51°21.353 3°3.34 -999 -999 -999 -999 -999
2009-02-26 09:19:29 51°21.356 3°3.364 -999 -999 -999 -999 -999
2009-02-26 09:19:34 51°21.361 3°3.387 -999 -999 -999 -999 -999
2009-02-26 09:19:39 51°21.364 3°3.411 -999 -999 -999 -999 -999
2009-02-26 09:19:44 51°21.369 3°3.434 -999 -999 -999 -999 -999
2009-02-26 09:19:49 51°21.372 3°3.457 -999 -999 -999 -999 -999
2009-02-26 09:19:54 51°21.376 3°3.48 -999 -999 -999 -999 -999
2009-02-26 09:19:59 51°21.38 3°3.503 -999 -999 -999 -999 -999
2009-02-26 09:20:04 51°21.383 3°3.527 -999 -999 -999 -999 -999
2009-02-26 09:20:09 51°21.388 3°3.55 -999 -999 -999 -999 -999
2009-02-26 09:20:14 51°21.39 3°3.574 -999 -999 -999 -999 -999
2009-02-26 09:20:19 51°21.395 3°3.596 -999 -999 -999 -999 -999
2009-02-26 09:20:24 51°21.398 3°3.619 -999 -999 -999 -999 -999
2009-02-26 09:20:29 51°21.402 3°3.642 -999 -999 -999 -999 -999
2009-02-26 09:20:34 51°21.406 3°3.665 -999 -999 -999 -999 -999
2009-02-26 09:20:39 51°21.411 3°3.688 -999 -999 -999 -999 -999
2009-02-26 09:20:44 51°21.413 3°3.711 -999 -999 -999 -999 -999
2009-02-26 09:20:49 51°21.418 3°3.734 -999 -999 -999 -999 -999
2009-02-26 09:20:54 51°21.422 3°3.758 -999 -999 -999 -999 -999
2009-02-26 09:20:59 51°21.426 3°3.781 -999 -999 -999 -999 -999
2009-02-26 09:21:04 51°21.429 3°3.804 -999 -999 -999 -999 -999
2009-02-26 09:21:09 51°21.434 3°3.827 -999 -999 -999 -999 -999
2009-02-26 09:21:14 51°21.437 3°3.851 -999 -999 -999 -999 -999
2009-02-26 09:21:19 51°21.442 3°3.874 -999 -999 -999 -999 -999
2009-02-26 09:21:24 51°21.445 3°3.898 -999 -999 -999 -999 -999
2009-02-26 09:21:29 51°21.451 3°3.92 -999 -999 -999 -999 -999
2009-02-26 09:21:34 51°21.453 3°3.944 -999 -999 -999 -999 -999
2009-02-26 09:21:39 51°21.459 3°3.966 -999 -999 -999 -999 -999
2009-02-26 09:21:44 51°21.461 3°3.99 -999 -999 -999 -999 -999
2009-02-26 09:21:49 51°21.467 3°4.013 -999 -999 -999 -999 -999
2009-02-26 09:21:54 51°21.471 3°4.036 -999 -999 -999 -999 -999
2009-02-26 09:21:59 51°21.475 3°4.059 -999 -999 -999 -999 -999
2009-02-26 09:22:04 51°21.479 3°4.083 -999 -999 -999 -999 -999
2009-02-26 09:22:09 51°21.483 3°4.106 -999 -999 -999 -999 -999
2009-02-26 09:22:14 51°21.487 3°4.128 -999 -999 -999 -999 -999
2009-02-26 09:22:19 51°21.491 3°4.151 -999 -999 -999 -999 -999
2009-02-26 09:22:24 51°21.495 3°4.175 -999 -999 -999 -999 -999
2009-02-26 09:22:29 51°21.5 3°4.198 -999 -999 -999 -999 -999
2009-02-26 09:22:34 51°21.503 3°4.221 -999 -999 -999 -999 -999
2009-02-26 09:22:39 51°21.508 3°4.245 -999 -999 -999 -999 -999
2009-02-26 09:22:44 51°21.513 3°4.268 -999 -999 -999 -999 -999
2009-02-26 09:22:49 51°21.516 3°4.291 -999 -999 -999 -999 -999
2009-02-26 09:22:54 51°21.522 3°4.314 -999 -999 -999 -999 -999
2009-02-26 09:22:59 51°21.525 3°4.338 -999 -999 -999 -999 -999
2009-02-26 09:23:04 51°21.529 3°4.361 -999 -999 -999 -999 -999
2009-02-26 09:23:09 51°21.534 3°4.384 -999 -999 -999 -999 -999
2009-02-26 09:23:14 51°21.537 3°4.408 -999 -999 -999 -999 -999
2009-02-26 09:23:19 51°21.54 3°4.431 -999 -999 -999 -999 -999
2009-02-26 09:23:24 51°21.545 3°4.454 -999 -999 -999 -999 -999
2009-02-26 09:23:29 51°21.548 3°4.478 -999 -999 -999 -999 -999
2009-02-26 09:23:34 51°21.552 3°4.501 -999 -999 -999 -999 -999
2009-02-26 09:23:39 51°21.556 3°4.524 -999 -999 -999 -999 -999
2009-02-26 09:23:44 51°21.56 3°4.548 -999 -999 -999 -999 -999
2009-02-26 09:23:49 51°21.564 3°4.571 -999 -999 -999 -999 -999
2009-02-26 09:23:54 51°21.567 3°4.594 -999 -999 -999 -999 -999
2009-02-26 09:23:59 51°21.57 3°4.618 -999 -999 -999 -999 -999
2009-02-26 09:24:04 51°21.576 3°4.64 -999 -999 -999 -999 -999
2009-02-26 09:24:09 51°21.578 3°4.664 -999 -999 -999 -999 -999
2009-02-26 09:24:14 51°21.583 3°4.686 -999 -999 -999 -999 -999